Location: ??????
(55.0357°N, 38.6195°E)
Time: 08:02:51
(UTC+00:00)

Cosmos 2026 Rocket - Visible Passes

Search period start: 22 July 2024 00:00
Search period end: 01 August 2024 00:00
Orbit: 938 x 1000 km, 82.9° (Epoch: 21 July)

Date Brightness Start Highest point End Pass type
(mag) Time Alt. Az. Time Alt. Az. Time Alt. Az.
22 Jul 6.0 22:16:47 10° N 22:21:54 25° ENE 22:27:03 10° ESE visible
23 Jul 4.1 00:01:39 10° NNW 00:07:58 84° W 00:14:20 10° S visible
23 Jul 6.8 20:57:27 10° NNE 20:58:30 10° NE 20:59:34 10° NE visible
23 Jul 5.4 22:40:05 10° N 22:45:53 37° ENE 22:51:41 10° SE visible
24 Jul 4.3 00:25:18 10° NNW 00:31:26 55° W 00:37:35 10° SSW visible
24 Jul 6.5 21:19:21 10° NNE 21:22:52 15° NE 21:26:23 10° E visible
24 Jul 4.7 23:03:30 10° N 23:09:42 55° ENE 23:15:55 10° SSE visible
25 Jul 6.1 21:42:19 10° N 21:47:04 22° NE 21:51:49 10° ESE visible
25 Jul 4.1 23:27:00 10° N 23:33:22 82° E 23:39:44 10° SSE visible
26 Jul 5.6 22:05:33 10° N 22:11:06 31° ENE 22:16:40 10° ESE visible
26 Jul 4.1 23:50:37 10° NNW 23:56:54 67° W 00:03:11 10° S visible
27 Jul 6.5 20:45:10 10° NNE 20:47:54 13° NE 20:50:39 10° ENE visible
27 Jul 5.0 22:28:55 10° N 22:34:59 46° ENE 22:41:04 10° SE visible
28 Jul 4.5 00:14:20 10° NNW 00:20:17 44° W 00:26:14 10° SSW visible
28 Jul 6.3 21:07:54 10° N 21:12:11 18° NE 21:16:28 10° E visible
28 Jul 4.3 22:52:23 10° N 22:58:43 68° ENE 23:05:04 10° SSE visible
29 Jul 5.0 00:38:14 10° NNW 00:43:32 29° W 00:48:50 10° SW visible
29 Jul 5.8 21:31:02 10° N 21:36:17 26° ENE 21:41:33 10° ESE visible
29 Jul 4.0 23:15:57 10° NNW 23:22:19 81° W 23:28:32 11° S visible
30 Jul 6.6 20:11:19 10° NNE 20:12:55 11° NE 20:14:30 10° NE visible
30 Jul 5.2 21:54:21 10° N 22:00:15 38° ENE 22:06:09 10° SE visible
30 Jul 4.3 23:39:37 10° NNW 23:45:46 53° W 23:51:29 12° SSW visible
31 Jul 6.3 20:33:33 10° NNE 20:37:15 16° NE 20:40:58 10° E visible
31 Jul 4.6 22:17:48 10° N 22:24:03 57° ENE 22:29:58 12° SSE visible
